Regional Weather Roundup
Issued by NWS Little Rock, AR

Home | Current Version | Previous Version | Graphics & Text | Print | Product List | Glossary On
Versions: 1 2 3 4 5 6 7 8 9 10 11 12 13 14 15 16 17 18 19 20 21 22 23 24 25 26 27 28 29 30 31 32 33 34 35 36 37 38 39 40 41 42 43 44 45 46 47 48 49 50
000
ASUS44 KLZK 021505
RWRLZK

WEATHER ROUNDUP FOR ARKANSAS
NATIONAL WEATHER SERVICE LITTLE ROCK AR
1000 AM CDT MON MAY 02 2016

NOTE: "FAIR" INDICATES FEW OR NO CLOUDS BELOW 12,000 FEET WITH NO
SIGNIFICANT WEATHER AND/OR OBSTRUCTIONS TO VISIBILITY.

ARZ001-003-010-029-021600-
NORTHWEST ARKANSAS

CITY           SKY/WX    TMP DP  RH WIND       PRES   REMARKS
FAYETTEVILLE   CLOUDY    53  50  89 N9        30.10R
FORT SMITH     CLOUDY    59  50  72 CALM      30.09S
HARRISON       CLOUDY    54  46  74 N3        30.09S
BENTONVILLE    CLOUDY    54  45  71 NE7       30.11F
ROGERS         CLOUDY    53  47  79 N6        30.11S
SILOAM SPGS    PTSUNNY   54  43  66 NE6       30.11F
HIGHFILL       CLOUDY    53  49  86 N7        30.10S
SPRINGDALE     CLOUDY    54  48  82 N9        30.12R
$$

ARZ004-005-016-021600-
NORTH CENTRAL ARKANSAS

CITY           SKY/WX    TMP DP  RH WIND       PRES   REMARKS
BATESVILLE     CLOUDY    61  48  63 NE10      30.07S
FLIPPIN        PTSUNNY  N/A N/A N/A NE3       30.06S
MTN HOME       PTSUNNY   57  47  69 VRB3      30.08R
$$

ARZ040-041-021600-
WEST CENTRAL ARKANSAS

CITY           SKY/WX    TMP DP  RH WIND       PRES   REMARKS
MENA           CLOUDY    59  54  82 CALM      30.09R
MOUNT IDA      CLOUDY    60  52  74 CALM      30.04F
$$

ARZ009-017-025-026-028-021600-
NORTHEAST ARKANSAS

CITY           SKY/WX    TMP DP  RH WIND       PRES   REMARKS
CORNING          N/A     61  50  67 E3        30.06S
JONESBORO      MOSUNNY   62  52  69 NE9       30.04S
NEWPORT        CLOUDY    61  53  74 N13       30.05F
WALNUT RIDGE   MOSUNNY   61  48  63 NE7       30.05F
BLYTHEVILLE    CLOUDY    60  55  83 NE6       30.04R
NW BLYTHEVILLE CLOUDY    59  55  88 N7        30.03F
$$

ARZ022-023-033-042-044-021600-
CENTRAL ARKANSAS

CITY           SKY/WX    TMP DP  RH WIND       PRES   REMARKS
LITTLE ROCK    CLOUDY    61  53  75 N7        30.07S
N LITTLE ROCK    N/A     58  53  84 N6        30.04R
JACKSONVILLE   PTSUNNY   60  53  79 NE8       30.06R
SEARCY         CLOUDY    61  54  77 NE9       30.07R
HOT SPRINGS    PTSUNNY   62  51  67 VRB5      30.07S
RUSSELLVILLE   CLOUDY    62  48  60 VRB3      30.06F
$$

ARZ036-021600-
EAST ARKANSAS

CITY           SKY/WX    TMP DP  RH WIND       PRES   REMARKS
WEST MEMPHIS   LGT RAIN  58  56  93 VRB7      29.99F
$$

ARZ050-053-066-070-073-021600-
SOUTHWEST ARKANSAS

CITY           SKY/WX    TMP DP  RH WIND       PRES   REMARKS
ARKADELPHIA    CLOUDY    59  59 100 N5        30.09R
CAMDEN         LGT RAIN  57  54  88 N7        30.07R
TEXARKANA      CLOUDY    59  56  89 N6        30.08F
EL DORADO      CLOUDY    58  55  90 N9        30.04S
DE QUEEN       LGT RAIN  58  56  93 W6        30.09R
$$

ARZ056-057-069-021600-
SOUTHEAST ARKANSAS

CITY           SKY/WX    TMP DP  RH WIND       PRES   REMARKS
PINE BLUFF     CLOUDY    58  54  86 N3        30.06R
STUTTGART      CLOUDY    59  52  77 N10       30.05R
MONTICELLO     LGT RAIN  59  56  89 N6        30.02F

$$





USA.gov is the U.S. government's official web portal to all federal, state and local government web resources and services.